EW4022 Weather Reports


Display with metric or nautical units.
time (UTC)temp
F
wind
direction
speed
MPH
gust
MPH
rain 1hr
in
rain 24hr
in
rain mn
in
humidity
%
barometer
mb
20260904115521 74 9 0.0 5.0 0.00 0.00 0.00 90 977.5
20260904115019 74 5 2.0 5.0 0.00 0.00 0.00 90 977.6
20260904114518 74 5 1.0 4.0 0.00 0.00 0.00 90 977.6
20260904114021 73 5 0.0 0.0 0.00 0.00 0.00 90 977.6
20260904113522 73 5 0.0 0.0 0.00 0.00 0.00 91 977.6
20260904113020 73 5 0.0 0.0 0.00 0.00 0.00 91 977.6
20260904112518 73 5 0.0 0.0 0.00 0.00 0.00 91 977.5
20260904112016 73 5 0.0 0.0 0.00 0.00 0.00 91 977.5
20260904111516 73 5 0.0 0.0 0.00 0.00 0.00 90 977.5
20260904111018 73 5 0.0 2.0 0.00 0.00 0.00 90 977.4
20260904110516 73 5 0.0 2.0 0.00 0.00 0.00 90 977.4
20260904110016 73 5 0.0 0.0 0.00 0.00 0.00 90 977.4
20260904105519 73 5 0.0 0.0 0.00 0.00 0.00 90 977.4
20260904105018 73 5 0.0 0.0 0.00 0.00 0.00 90 977.4
20260904104518 73 5 0.0 0.0 0.00 0.00 0.00 90 977.3
20260904104017 73 5 0.0 0.0 0.00 0.00 0.00 90 977.3
20260904103514 73 5 0.0 0.0 0.00 0.00 0.00 89 977.3
20260904103015 73 5 0.0 0.0 0.00 0.00 0.00 90 977.3
20260904102514 73 5 0.0 0.0 0.00 0.00 0.00 89 977.2
20260904102016 73 5 0.0 0.0 0.00 0.00 0.00 89 977.2
20260904101513 73 5 0.0 0.0 0.00 0.00 0.00 89 977.2
20260904101012 73 5 0.0 0.0 0.00 0.00 0.00 89 977.1
20260904100512 73 5 0.0 0.0 0.00 0.00 0.00 89 977.1
20260904100011 74 5 0.0 0.0 0.00 0.00 0.00 88 976.9
20260904095512 74 5 0.0 0.0 0.00 0.00 0.00 88 977.0
20260904095012 74 5 0.0 0.0 0.00 0.00 0.00 88 976.9
20260904094510 74 5 0.0 0.0 0.00 0.00 0.00 88 976.9
20260904094009 74 5 0.0 0.0 0.00 0.00 0.00 88 977.0
20260904093512 74 5 0.0 0.0 0.00 0.00 0.00 88 976.9
20260904093010 74 5 0.0 0.0 0.00 0.00 0.00 88 976.8
20260904092511 74 5 0.0 0.0 0.00 0.00 0.00 88 976.8
20260904092012 74 5 0.0 0.0 0.00 0.00 0.00 88 976.8
20260904091509 74 5 0.0 0.0 0.00 0.00 0.00 88 976.8
20260904091011 74 5 0.0 1.0 0.00 0.00 0.00 87 976.8
20260904090507 74 5 0.0 1.0 0.00 0.00 0.00 87 976.7
20260904090014 75 5 0.0 0.0 0.00 0.00 0.00 86 976.7
20260904085506 75 5 0.0 0.0 0.00 0.00 0.00 86 976.7
20260904085006 75 5 0.0 0.0 0.00 0.00 0.00 86 976.7
20260904084507 75 5 0.0 1.0 0.00 0.00 0.00 85 976.6
20260904084003 76 5 0.0 1.0 0.00 0.00 0.00 85 976.5
20260904083503 76 5 0.0 0.0 0.00 0.00 0.00 84 976.4
20260904083003 76 5 0.0 0.0 0.00 0.00 0.00 84 976.4
20260904082503 77 5 0.0 0.0 0.00 0.00 0.00 83 976.3
20260904082001 77 5 0.0 0.0 0.00 0.00 0.00 83 976.2
20260904081505 77 5 0.0 0.0 0.00 0.00 0.00 83 976.2
20260904081001 77 5 0.0 2.0 0.00 0.00 0.00 83 976.2
20260904080502 77 5 0.0 2.0 0.00 0.00 0.00 83 976.2
20260904080002 77 5 0.0 3.0 0.00 0.00 0.00 82 976.2
20260904075500 77 5 0.0 3.0 0.00 0.00 0.00 82 976.1
20260904075000 77 9 0.0 3.0 0.00 0.00 0.00 82 976.1
20260904074609 78 9 0.0 3.0 0.00 0.00 0.00 82 976.1
20260904074100 78 9 1.0 3.0 0.00 0.00 0.00 82 976.0
20260904073559 78 9 0.0 3.0 0.00 0.00 0.00 82 976.1
20260904073059 78 9 0.0 3.0 0.00 0.00 0.00 82 976.1
20260904072559 78 9 0.0 3.0 0.00 0.00 0.00 82 976.1
20260904072101 78 9 0.0 4.0 0.00 0.00 0.00 82 976.2
20260904071604 78 9 1.0 5.0 0.00 0.00 0.00 82 976.2
20260904071058 78 9 1.0 4.0 0.00 0.00 0.00 82 976.2
20260904070559 78 9 1.0 4.0 0.00 0.00 0.00 82 976.1
20260904070058 78 11 0.0 3.0 0.00 0.00 0.00 82 976.1
20260904065557 77 11 0.0 3.0 0.00 0.00 0.00 83 976.2
20260904065057 77 11 0.0 2.0 0.00 0.00 0.00 83 976.3
20260904064605 77 11 0.0 3.0 0.00 0.00 0.00 84 976.4
20260904064057 77 11 0.0 3.0 0.00 0.00 0.00 84 976.4
20260904063555 77 11 0.0 2.0 0.00 0.00 0.00 85 976.4
20260904063054 76 11 0.0 2.0 0.00 0.00 0.00 85 976.4
20260904062554 76 11 0.0 0.0 0.00 0.00 0.00 85 976.6
20260904062052 77 11 0.0 0.0 0.00 0.00 0.00 84 976.6
20260904061551 77 11 0.0 0.0 0.00 0.00 0.00 84 976.7
20260904061051 77 11 0.0 0.0 0.00 0.00 0.00 84 976.9
20260904060549 77 11 0.0 0.0 0.00 0.00 0.00 83 977.0
20260904060112 77 11 0.0 0.0 0.00 0.00 0.00 83 977.1
20260904055547 78 11 0.0 0.0 0.00 0.00 0.00 83 977.3
20260904055045 78 11 0.0 0.0 0.00 0.00 0.00 83 977.3
20260904054546 78 11 0.0 0.0 0.00 0.00 0.00 83 977.4
20260904054044 78 11 0.0 0.0 0.00 0.00 0.00 83 977.6
20260904053543 78 11 0.0 1.0 0.00 0.00 0.00 83 977.6
20260904053134 78 11 0.0 1.0 0.00 0.00 0.00 83 977.5
20260904052543 78 11 0.0 0.0 0.00 0.00 0.00 83 977.6
20260904052043 78 11 0.0 0.0 0.00 0.00 0.00 82 977.7
20260904051602 78 11 0.0 0.0 0.00 0.00 0.00 82 977.6
20260904051040 78 11 0.0 0.0 0.00 0.00 0.00 82 977.8
20260904050540 78 11 0.0 0.0 0.00 0.00 0.00 82 977.9
20260904050040 79 11 0.0 0.0 0.00 0.00 0.00 81 977.8
20260904045540 79 11 0.0 0.0 0.00 0.00 0.00 81 977.8
20260904045041 79 11 0.0 0.0 0.00 0.00 0.00 81 977.9
20260904044556 79 11 0.0 1.0 0.00 0.00 0.00 81 977.8
20260904044038 79 11 0.0 3.0 0.00 0.00 0.00 81 977.9
20260904043539 79 11 0.0 4.0 0.00 0.00 0.00 81 977.8
20260904043038 79 12 0.0 2.0 0.00 0.00 0.00 82 977.8
20260904042536 78 12 0.0 2.0 0.00 0.00 0.00 82 977.8
20260904042036 78 12 0.0 0.0 0.00 0.00 0.00 82 977.9
20260904041536 78 12 0.0 0.0 0.00 0.00 0.00 82 977.9
20260904041034 79 12 0.0 0.0 0.00 0.00 0.00 82 978.0
20260904040536 79 12 0.0 0.0 0.00 0.00 0.00 82 977.9
20260904040034 79 12 0.0 0.0 0.00 0.00 0.00 82 978.0
20260904035533 79 12 0.0 1.0 0.00 0.00 0.00 82 977.9
20260904035034 79 12 0.0 2.0 0.00 0.00 0.00 82 977.9
20260904034532 79 12 0.0 2.0 0.00 0.00 0.00 82 977.9
20260904034031 79 12 0.0 2.0 0.00 0.00 0.00 82 977.9
20260904033532 79 12 0.0 0.0 0.00 0.00 0.00 82 977.9
20260904033032 79 12 0.0 2.0 0.00 0.00 0.00 82 977.9
20260904032531 79 12 0.0 2.0 0.00 0.00 0.00 82 977.9
20260904032030 79 12 0.0 0.0 0.00 0.00 0.00 82 977.8
20260904031532 79 12 0.0 0.0 0.00 0.00 0.00 82 977.7
20260904031031 79 12 0.0 0.0 0.00 0.00 0.00 82 977.7
20260904030531 79 12 0.0 0.0 0.00 0.00 0.00 82 977.6
20260904030031 79 12 0.0 0.0 0.00 0.00 0.00 82 977.7
20260904025531 79 12 0.0 1.0 0.00 0.00 0.00 82 977.6
20260904025031 79 12 0.0 1.0 0.00 0.00 0.00 82 977.6
20260904024533 79 12 0.0 0.0 0.00 0.00 0.00 82 977.6
20260904024030 79 12 0.0 1.0 0.00 0.00 0.00 82 977.6
20260904023529 79 12 0.0 1.0 0.00 0.00 0.00 82 977.6
20260904023030 79 12 0.0 2.0 0.00 0.00 0.00 82 977.5
20260904022529 80 12 0.0 2.0 0.00 0.00 0.00 82 977.6
20260904022029 80 12 0.0 1.0 0.00 0.00 0.00 81 977.7
20260904021532 80 12 0.0 1.0 0.00 0.00 0.00 81 977.6
20260904021029 80 12 0.0 1.0 0.00 0.00 0.00 81 977.5
20260904020529 80 12 0.0 0.0 0.00 0.00 0.00 81 977.5
20260904020029 80 12 0.0 0.0 0.00 0.00 0.00 80 977.5
20260904015528 80 12 0.0 0.0 0.00 0.00 0.00 80 977.4
20260904015029 80 12 0.0 1.0 0.00 0.00 0.00 80 977.4
20260904014529 81 12 0.0 1.0 0.00 0.00 0.00 80 977.4
20260904014028 81 12 0.0 0.0 0.00 0.00 0.00 80 977.4
20260904013527 81 12 0.0 0.0 0.00 0.00 0.00 79 977.4
20260904013028 81 12 0.0 1.0 0.00 0.00 0.00 79 977.3
20260904012528 81 12 0.0 1.0 0.00 0.00 0.00 79 977.3
20260904012032 81 12 0.0 0.0 0.00 0.00 0.00 78 977.4
20260904011532 81 12 0.0 0.0 0.00 0.00 0.00 78 977.4
20260904011027 82 12 0.0 0.0 0.00 0.00 0.00 78 977.4
20260904010531 82 12 0.0 0.0 0.00 0.00 0.00 77 977.3
20260904010027 82 12 0.0 1.0 0.00 0.00 0.00 77 977.3
20260904005530 82 12 0.0 1.0 0.00 0.00 0.00 77 977.3
20260904005030 82 12 0.0 0.0 0.00 0.00 0.00 76 977.2
20260904004527 82 12 0.0 0.0 0.00 0.00 0.00 76 977.2
20260904004029 83 12 0.0 0.0 0.00 0.00 0.00 76 977.1
20260904003532 83 12 0.0 0.0 0.00 0.00 0.00 76 977.1
20260904003026 83 12 0.0 1.0 0.00 0.00 0.00 75 977.0
20260904002526 83 12 0.0 1.0 0.00 0.00 0.00 75 977.0
20260904002027 84 12 0.0 1.0 0.00 0.00 0.00 74 976.8
20260904001528 84 12 0.0 3.0 0.00 0.00 0.00 74 976.7
20260904001032 85 12 1.0 3.0 0.00 0.00 0.00 73 976.6
20260904000525 85 12 0.0 2.0 0.00 0.00 0.00 72 976.6
20260904000025 86 12 0.0 2.0 0.00 0.00 0.00 71 976.6
20260903235525 86 12 0.0 0.0 0.00 0.00 0.00 70 976.4
20260903235024 87 12 0.0 2.0 0.00 0.00 0.00 69 976.3
20260903234525 88 12 0.0 2.0 0.00 0.00 0.00 68 976.2
20260903234024 88 12 1.0 3.0 0.00 0.00 0.00 67 976.2
20260903233529 88 12 0.0 3.0 0.00 0.00 0.00 66 976.1
20260903233023 89 12 0.0 3.0 0.00 0.00 0.00 65 976.1
20260903232524 90 12 1.0 3.0 0.00 0.00 0.00 65 976.1
20260903232024 90 12 0.0 1.0 0.00 0.00 0.00 63 976.0
20260903231524 90 12 0.0 2.0 0.00 0.00 0.00 62 976.0
20260903231023 91 12 1.0 4.0 0.00 0.00 0.00 62 975.9
20260903230523 91 12 1.0 4.0 0.00 0.00 0.00 61 975.9
20260903230023 91 12 0.0 4.0 0.00 0.00 0.00 61 975.7
20260903225523 91 11 0.0 2.0 0.00 0.00 0.00 61 975.8
20260903225023 91 12 0.0 3.0 0.00 0.00 0.00 61 975.7
20260903224536 91 12 1.0 3.0 0.00 0.00 0.00 60 975.7
20260903224022 91 28 1.0 3.0 0.00 0.00 0.00 60 975.7
20260903223530 91 28 0.0 1.0 0.00 0.00 0.00 60 975.6
20260903223029 91 29 0.0 4.0 0.00 0.00 0.00 59 975.8
20260903222520 92 28 0.0 4.0 0.00 0.00 0.00 59 975.8
20260903222022 92 30 0.0 3.0 0.00 0.00 0.00 58 975.7
20260903221520 92 30 0.0 3.0 0.00 0.00 0.00 57 975.9
20260903221019 93 30 0.0 3.0 0.00 0.00 0.00 57 975.9
20260903220519 93 30 0.0 2.0 0.00 0.00 0.00 56 976.0
20260903220019 93 30 0.0 3.0 0.00 0.00 0.00 56 976.0
20260903215519 94 30 1.0 3.0 0.00 0.00 0.00 55 976.0
20260903215018 94 32 0.0 6.0 0.00 0.00 0.00 55 976.0
20260903214519 95 32 0.0 6.0 0.00 0.00 0.00 54 976.1
20260903214018 95 64 0.0 6.0 0.00 0.00 0.00 53 976.0
20260903213518 95 271 1.0 7.0 0.00 0.00 0.00 53 976.1
20260903213034 95 9 2.0 5.0 0.00 0.00 0.00 52 976.1
20260903212517 96 5 1.0 8.0 0.00 0.00 0.00 52 976.1
20260903212017 96 26 2.0 8.0 0.00 0.00 0.00 51 976.1
20260903211515 96 271 2.0 6.0 0.00 0.00 0.00 51 976.1
20260903211014 96 17 1.0 8.0 0.00 0.00 0.00 52 976.2
20260903210514 96 18 2.0 8.0 0.00 0.00 0.00 50 976.3
20260903210014 97 18 1.0 4.0 0.00 0.00 0.00 50 976.3
20260903205514 97 21 2.0 5.0 0.00 0.00 0.00 50 976.3
20260903205014 97 32 1.0 9.0 0.00 0.00 0.00 50 976.3
20260903204513 98 271 3.0 7.0 0.00 0.00 0.00 49 976.4
20260903204014 98 5 3.0 8.0 0.00 0.00 0.00 48 976.5
20260903203511 99 270 2.0 9.0 0.00 0.00 0.00 49 976.5
20260903203024 98 29 3.0 9.0 0.00 0.00 0.00 48 976.5
20260903202508 99 9 2.0 7.0 0.00 0.00 0.00 48 976.6
20260903202008 98 34 3.0 11.0 0.00 0.00 0.00 48 976.6
20260903201508 98 24 3.0 6.0 0.00 0.00 0.00 47 976.8
20260903201007 98 51 2.0 8.0 0.00 0.00 0.00 48 976.8
20260903200507 98 13 2.0 8.0 0.00 0.00 0.00 47 976.8
20260903200007 98 5 1.0 5.0 0.00 0.00 0.00 48 976.8
20260903195505 97 248 2.0 4.0 0.00 0.00 0.00 47 976.8
20260903195005 97 248 1.0 4.0 0.00 0.00 0.00 48 976.9
20260903194505 96 248 1.0 3.0 0.00 0.00 0.00 53 976.9
20260903194004 96 248 1.0 3.0 0.00 0.00 0.00 48 976.9
20260903193504 97 246 0.0 3.0 0.00 0.00 0.00 48 976.9
20260903193004 98 245 0.0 4.0 0.00 0.00 0.00 49 977.0
20260903192504 98 245 1.0 4.0 0.00 0.00 0.00 47 977.1
20260903192002 98 235 2.0 6.0 0.00 0.00 0.00 48 977.0
20260903191502 98 31 2.0 6.0 0.00 0.00 0.00 47 977.1
20260903191002 98 15 1.0 8.0 0.00 0.00 0.00 48 977.2
20260903190602 98 15 2.0 8.0 0.00 0.00 0.00 47 977.3
20260903190106 97 360 3.0 8.0 0.00 0.00 0.00 49 977.4
20260903185600 97 271 2.0 6.0 0.00 0.00 0.00 48 977.4
20260903185103 95 28 1.0 5.0 0.00 0.00 0.00 49 977.5
20260903184559 95 28 1.0 5.0 0.00 0.00 0.00 49 977.5
20260903184058 96 34 1.0 5.0 0.00 0.00 0.00 49 977.7
20260903183557 97 35 2.0 8.0 0.00 0.00 0.00 48 977.6
20260903183101 98 271 3.0 8.0 0.00 0.00 0.00 46 977.7
20260903182557 99 26 2.0 7.0 0.00 0.00 0.00 47 977.7
20260903182055 99 21 2.0 7.0 0.00 0.00 0.00 47 977.7
20260903181555 99 50 1.0 6.0 0.00 0.00 0.00 46 977.8
20260903181053 98 42 3.0 6.0 0.00 0.00 0.00 46 977.7
20260903180554 99 270 3.0 6.0 0.00 0.00 0.00 47 977.9
20260903180053 97 270 1.0 6.0 0.00 0.00 0.00 50 977.9
20260903175554 98 270 2.0 6.0 0.00 0.00 0.00 47 978.0
20260903175051 97 270 1.0 5.0 0.00 0.00 0.00 50 978.1
20260903174549 97 270 1.0 5.0 0.00 0.00 0.00 47 978.2
20260903174047 96 271 0.0 6.0 0.00 0.00 0.00 49 978.2
20260903173546 96 250 1.0 4.0 0.00 0.00 0.00 49 978.3
20260903173046 96 242 1.0 5.0 0.00 0.00 0.00 50 978.3
20260903172546 96 242 1.0 5.0 0.00 0.00 0.00 51 978.2
20260903172046 96 242 0.0 3.0 0.00 0.00 0.00 52 978.3
20260903171544 96 242 0.0 4.0 0.00 0.00 0.00 53 978.4
20260903171044 95 240 1.0 3.0 0.00 0.00 0.00 54 978.4
20260903170548 93 240 0.0 0.0 0.00 0.00 0.00 55 978.5
20260903170048 93 240 0.0 3.0 0.00 0.00 0.00 56 978.5
20260903165542 93 240 0.0 5.0 0.00 0.00 0.00 54 978.5
20260903165042 94 240 0.0 5.0 0.00 0.00 0.00 54 978.6
20260903164542 95 275 0.0 3.0 0.00 0.00 0.00 52 978.6
20260903164042 96 271 1.0 3.0 0.00 0.00 0.00 53 978.6
20260903163542 95 271 1.0 4.0 0.00 0.00 0.00 54 978.6
20260903163043 95 271 2.0 9.0 0.00 0.00 0.00 54 978.7
20260903162540 95 360 3.0 9.0 0.00 0.00 0.00 52 978.8
20260903162039 96 19 2.0 5.0 0.00 0.00 0.00 56 978.8
20260903161538 95 34 1.0 7.0 0.00 0.00 0.00 54 978.9
20260903161040 95 24 2.0 5.0 0.00 0.00 0.00 56 979.0
20260903160536 95 270 1.0 3.0 0.00 0.00 0.00 54 979.0
20260903160042 94 270 0.0 9.0 0.00 0.00 0.00 57 979.1
20260903155535 94 270 3.0 9.0 0.00 0.00 0.00 56 979.0
20260903155035 94 47 1.0 4.0 0.00 0.00 0.00 57 979.1
20260903154533 94 55 1.0 6.0 0.00 0.00 0.00 57 979.2
20260903154038 93 270 1.0 6.0 0.00 0.00 0.00 58 979.2
20260903153534 93 5 2.0 6.0 0.00 0.00 0.00 59 979.2
20260903153031 93 20 2.0 6.0 0.00 0.00 0.00 59 979.3
20260903152530 93 271 2.0 6.0 0.00 0.00 0.00 59 979.3
20260903152032 92 197 2.0 6.0 0.00 0.00 0.00 59 979.3
20260903151527 92 12 3.0 7.0 0.00 0.00 0.00 61 979.2
20260903151027 92 23 1.0 6.0 0.00 0.00 0.00 61 979.3
20260903150526 92 22 2.0 6.0 0.00 0.00 0.00 62 979.3
20260903150028 91 19 0.0 4.0 0.00 0.00 0.00 62 979.4
20260903145524 91 22 2.0 4.0 0.00 0.00 0.00 63 979.3
20260903145023 90 22 0.0 6.0 0.00 0.00 0.00 64 979.5
20260903144533 90 23 1.0 8.0 0.00 0.00 0.00 64 979.5
20260903144020 89 273 1.0 6.0 0.00 0.00 0.00 65 979.5
20260903143521 89 273 3.0 6.0 0.00 0.00 0.00 66 979.4
20260903143018 89 5 2.0 5.0 0.00 0.00 0.00 66 979.5
20260903142519 89 9 2.0 5.0 0.00 0.00 0.00 66 979.5
20260903142017 88 270 2.0 6.0 0.00 0.00 0.00 67 979.4
20260903141514 87 270 1.0 6.0 0.00 0.00 0.00 68 979.5
20260903141014 87 271 1.0 6.0 0.00 0.00 0.00 69 979.5
20260903140515 86 273 1.0 6.0 0.00 0.00 0.00 70 979.4
20260903140012 86 182 1.0 5.0 0.00 0.00 0.00 70 979.4
20260903135510 85 21 2.0 5.0 0.00 0.00 0.00 70 979.4
20260903135009 85 5 0.0 4.0 0.00 0.00 0.00 72 979.4
20260903134507 84 270 0.0 5.0 0.00 0.00 0.00 73 979.4
20260903134007 84 360 2.0 7.0 0.00 0.00 0.00 73 979.5
20260903133507 83 360 1.0 7.0 0.00 0.00 0.00 75 979.5
20260903133008 82 28 3.0 7.0 0.00 0.00 0.00 75 979.6
20260903132503 82 32 1.0 9.0 0.00 0.00 0.00 76 979.7
20260903132000 82 19 3.0 6.0 0.00 0.00 0.00 77 979.8
20260903131611 81 360 1.0 6.0 0.00 0.00 0.00 78 979.8
20260903131058 81 13 2.0 9.0 0.00 0.00 0.00 79 979.9
20260903130557 80 14 3.0 9.0 0.00 0.00 0.00 80 979.9
20260903130057 79 11 2.0 6.0 0.00 0.00 0.00 81 979.9
20260903125554 79 271 1.0 4.0 0.00 0.00 0.00 82 979.9
20260903125056 78 272 0.0 4.0 0.00 0.00 0.00 84 979.9
20260903124552 77 272 1.0 4.0 0.00 0.00 0.00 85 980.0
20260903124051 77 272 1.0 4.0 0.00 0.00 0.00 86 980.0
20260903123550 76 272 0.0 3.0 0.00 0.00 0.00 87 980.0
20260903123057 76 273 1.0 3.0 0.00 0.00 0.00 88 979.9
20260903122550 75 273 0.0 3.0 0.00 0.00 0.00 89 980.0
20260903122050 75 273 1.0 4.0 0.00 0.00 0.00 90 979.9
20260903121612 74 274 0.0 4.0 0.00 0.00 0.00 91 979.9
20260903121052 74 274 0.0 0.0 0.00 0.00 0.00 91 979.9
20260903120551 73 274 0.0 0.0 0.00 0.00 0.00 91 979.9
20260903120048 73 274 0.0 0.0 0.00 0.00 0.00 92 979.9